Regional Weather Roundup
Issued by NWS

Home | Current Version | Previous Version | Graphics & Text | Print | Product List | Glossary Off
Versions: 1 2 3 4 5 6 7 8 9 10 11 12 13 14 15 16 17 18 19 20 21 22 23 24 25 26 27 28 29 30 31 32 33 34 35 36 37 38 39 40 41 42 43 44 45 46 47 48 49 50

000
ASUS43 KDTX 191601
RWRMI
MICHIGAN HOURLY REGIONAL WEATHER ROUNDUP
NATIONAL WEATHER SERVICE DETROIT/PONTIAC MI
1100 AM EST FRI DEC 19 2014

NOTE: "FAIR" INDICATES FEW OR NO CLOUDS BELOW 12,000 FEET WITH NO
SIGNIFICANT WEATHER AND/OR OBSTRUCTION TO VISIBILITY.

MIZ047>049-052>055-059>063-066>070-074>076-081>083-191700-
SOUTHEAST LOWER MICHIGAN

CITY           SKY/WX    TMP DP  RH WIND       PRES   REMARKS
ADRIAN         CLOUDY    28  24  85 E3        30.28R
ALMA           CLOUDY    25  19  80 N3        30.29F
BAD AXE        SUNNY     28  24  84 W6        30.28R WCI  22
CARO           CLOUDY    27  21  79 W6        30.29S WCI  20
DETROIT CITY   CLOUDY    30  18  60 NE9       30.28F WCI  22
DETROIT        CLOUDY    28  20  71 N10       30.28S WCI  19
FLINT          CLOUDY    27  18  69 CALM      30.29S
GROSSE ILE     CLOUDY    28  21  74 N9        30.26F WCI  20
HILLSDALE      CLOUDY    29  25  86 CALM      30.24R
HOWELL         CLOUDY    25  21  85 N5        30.26F WCI  19

CITY           SKY/WX    TMP DP  RH WIND       PRES   REMARKS
JACKSON        CLOUDY    28  22  78 CALM      30.25S
LAMBERTVILLE   CLOUDY    32  27  80 NE3       30.28R
LANSING        CLOUDY    25  19  78 NE7       30.28S WCI  17
LAPEER         PTSUNNY   26  22  84 N5        30.28F WCI  20
MASON          CLOUDY    26  21  82 N6        30.26S WCI  19
MONROE         CLOUDY    28  25  86 N7        30.26R WCI  21
MT. CLEMENS    PTSUNNY   28  19  69 N6        30.25F WCI  22
PONTIAC        PTSUNNY   25  18  74 N6        30.25F WCI  18
PORT HOPE        N/A     30  24  78 NW6       30.25S WCI  24
PORT HURON     CLOUDY    28  21  74 W7        30.27F WCI  21
TRI CITIES     SUNNY     27  18  69 VRB5      30.30S WCI  22
TROY           CLOUDY    28  19  69 NW7       30.29F WCI  21
SAGINAW HB     SUNNY     28  21  74 NW5       30.29F WCI  23
$$
MIZ043>046-050>051-056>058-064>065-071>073-077>080-191700-
SOUTHWEST LOWER MICHIGAN

CITY           SKY/WX    TMP DP  RH WIND       PRES   REMARKS
BATTLE CREEK   CLOUDY    29  21  72 CALM      30.26S
BENTON HARBOR  MOSUNNY   31  23  72 NE7       30.29R WCI  24
BIG RAPIDS     MOSUNNY   22  20  94 CALM      30.28S
COLDWATER      CLOUDY    29  25  87 MISG      30.26R
FREMONT        FAIR      26  20  79 NE5       30.29R WCI  20
HOLLAND        SUNNY     29  20  69 E6        30.29S WCI  23
GRAND RAPIDS   MOSUNNY   27  18  69 CALM      30.28S
IONIA          FAIR      28  20  72 CALM      30.27S
KALAMAZOO      PTSUNNY   31  21  66 NE3       30.27R
LUDINGTON      CLOUDY    22  20  89 CALM      30.31S
MARSHALL       CLOUDY    28  22  80 CALM      30.25S
MOUNT PLEASANT SUNNY     24  19  79 CALM      30.28F
MUSKEGON       SUNNY     28  20  71 NE6       30.30S WCI  22
SOUTH HAVEN    SUNNY     30  20  65 NE7       30.29R WCI  23
$$
MIZ016>042-191700-
NORTHERN LOWER MICHIGAN

CITY           SKY/WX    TMP DP  RH WIND       PRES   REMARKS
ALPENA         PTSUNNY   24  19  81 NW8       30.29R WCI  15
BEAVER ISLAND  SUNNY     24  23  96 NE3       30.30S
BELLAIRE       MOSUNNY   16  14  91 CALM      30.31S
CADILLAC       SUNNY     16  14  90 CALM      30.25S
CHARLEVOIX     SUNNY     21  17  86 CALM      30.32S
FRANKFORT      CLOUDY    25  22  91 CALM      30.31R
GAYLORD        SUNNY     16  15  96 CALM      30.25R
GRAYLING       SUNNY     13  11  91 CALM      30.26F
HARBOR SPRINGS SUNNY     18  14  83 CALM      30.29S
HOUGHTON LAKE  SUNNY     16  13  88 CALM      30.27R
MANISTEE       CLOUDY    19  16  86 E3        30.31S
OSCODA         SUNNY     25  19  79 N7        30.28S WCI  17
PELLSTON       SUNNY     14  11  87 CALM      30.30R
ROGERS CITY    CLOUDY    25  22  87 NW5       30.29F WCI  19
TRAVERSE CITY  MOSUNNY   24  19  81 CALM      30.30R
$$
MIZ007>008-015-191700-
EASTERN UPPER MICHIGAN

CITY           SKY/WX    TMP DP  RH WIND       PRES   REMARKS
KINROSS        SUNNY     28  21  74 CALM      30.29S
MACKINAC ISLAN SUNNY     23  15  71 N5        30.29R WCI  17
NEWBERRY       SUNNY     16  15  95 CALM      30.28S
S. S. MARIE    SUNNY     20  11  68 CALM      30.29R
MUNISING         N/A     29  23  78 CALM      30.29S
$$
MIZ004>006-011>014-085-191700-
CENTRAL UPPER MICHIGAN

CITY           SKY/WX    TMP DP  RH WIND       PRES   REMARKS
MANISTIQUE     PTSUNNY   24  24  98 CALM      30.29F
ESCANABA       CLOUDY    19  18  93 CALM      30.31R
MENOMINEE      SUNNY     21  18  86 NW3       30.32R
SAWYER-GWINN   CLOUDY    23  21  93 CALM      30.26S
$$
MIZ001>003-009>011-084-191700-
WESTERN UPPER MICHIGAN

CITY           SKY/WX    TMP DP  RH WIND       PRES   REMARKS
IRON MOUNTAIN  SUNNY     15  10  80 CALM      30.28S
HOUGHTON       CLOUDY    22  19  89 CALM      30.27S
COPPER HARBOR    N/A     29  22  75 W3        30.29S
IRONWOOD       CLOUDY    19  19 100 S3        30.23S
$$

ABBREVIATIONS USED IN REMARKS
   TC - TEMPERATURE IN CELSIUS
  WCI - WIND CHILL INDEX
   HX - HEAT INDEX
  VSB - VISIBILITY




USA.gov is the U.S. government's official web portal to all federal, state and local government web resources and services.